Weather History for Bartow, FL

Change the Weather History Date:

Sunday, January 26, 2014

  Actual Average Record
Temperature  
Mean Temperature 55 °F -  
Max Temperature 64 °F 71 °F 85 °F (1950)
Min Temperature 46 °F 49 °F 27 °F (1940)
Degree Days  
Heating Degree Days 10    
Growing Degree Days 5 (Base 50)    
Moisture  
Dew Point 56 °F    
Average Humidity 96    
Maximum Humidity 100    
Minimum Humidity 83    
Precipitation  
Precipitation 0.00 in - - ()
Sea Level Pressure  
Sea Level Pressure 30.03 in    
Wind  
Wind Speed 3 mph (SSW)    
Max Wind Speed 9 mph    
Max Gust Speed -    
Visibility 9 miles    
Events Rain    
Averages and records for this station are not official NWS values.
T = Trace of Precipitation, MM = Missing Value Source: NWS Daily Summary

Daily Weather History Graph

Daily Weather History Graph

Search for Another Location

Airport:

Trip Planner

Search our weather history database for the weather conditions in past years. The results will help you decide how hot, cold, wet, or windy it might be!

Date:

Astronomy

Jan. 26, 2014 Rise Set
Actual Time 7:16 AM EST 6:02 PM EST
Civil Twilight 6:52 AM EST 6:27 PM EST
Nautical Twilight 6:23 AM EST 6:55 PM EST
Astronomical Twilight 5:55 AM EST 7:23 PM EST
Moon 2:51 AM EST (1/26) 1:53 PM EST (1/26)
Length of Visible Light 11h 35m
Length of Day
10h 45m
Waning Crescent, 24% of the Moon is Illuminated
Jan 26
Waning Crescent
Jan 30
New
Feb 6
First Quarter
Feb 14
Full
Feb 22
Last Quarter

Hourly Weather History & Observations

Time (EST) Temp. Dew Point Humidity Pressure Visibility Wind Dir Wind Speed Gust Speed Precip Events Conditions
12:15 AM 48.2 °F 48.2 °F 100% 30.07 in 10.0 mi South 5.8 mph - N/A   Clear
12:35 AM 51.8 °F 51.8 °F 100% 30.06 in 10.0 mi South 8.1 mph - N/A   Clear
12:55 AM 51.8 °F 51.8 °F 100% 30.06 in 10.0 mi South 5.8 mph - N/A   Clear
1:15 AM 51.8 °F 51.8 °F 100% 30.06 in 10.0 mi NW 3.5 mph - N/A   Clear
1:35 AM 51.8 °F 51.8 °F 100% 30.06 in 10.0 mi Calm Calm - N/A   Partly Cloudy
1:55 AM 48.2 °F 48.2 °F 100% 30.05 in 10.0 mi Calm Calm - N/A   Clear
2:15 AM 48.2 °F 48.2 °F 100% 30.05 in 10.0 mi South 3.5 mph - N/A   Partly Cloudy
2:35 AM 46.4 °F 46.4 °F 100% 30.04 in 10.0 mi Calm Calm - N/A   Clear
2:55 AM 48.2 °F 48.2 °F 100% 30.05 in 10.0 mi Calm Calm - N/A   Scattered Clouds
3:15 AM 48.2 °F 48.2 °F 100% 30.04 in 10.0 mi Calm Calm - N/A   Mostly Cloudy
3:35 AM 48.2 °F 48.2 °F 100% 30.03 in 10.0 mi Calm Calm - N/A   Mostly Cloudy
3:55 AM 50.0 °F 50.0 °F 100% 30.03 in 10.0 mi Calm Calm - N/A   Overcast
4:15 AM 51.8 °F 51.8 °F 100% 30.04 in 10.0 mi Calm Calm - N/A   Overcast
4:35 AM 51.8 °F 51.8 °F 100% 30.04 in 9.0 mi Calm Calm - N/A   Overcast
4:55 AM 51.8 °F 51.8 °F 100% 30.04 in 10.0 mi Calm Calm - N/A   Mostly Cloudy
5:15 AM 53.6 °F 53.6 °F 100% 30.04 in 4.0 mi SW 4.6 mph - N/A   Light Drizzle
5:35 AM 55.4 °F - N/A% 30.04 in 5.0 mi SW 4.6 mph - N/A   Haze
5:55 AM 55.4 °F - N/A% 30.05 in 5.0 mi SSW 3.5 mph - N/A   Haze
6:15 AM 55.4 °F - N/A% 30.06 in 3.0 mi NW 6.9 mph - N/A Rain Rain
2:35 PM 62.6 °F 59.0 °F 88% 30.03 in 9.0 mi SSW 5.8 mph - N/A   Overcast
2:55 PM 62.6 °F 59.0 °F 88% 30.02 in 10.0 mi South 5.8 mph - N/A   Overcast
3:15 PM 64.4 °F 59.0 °F 83% 30.02 in 10.0 mi SSW 6.9 mph - N/A   Mostly Cloudy
3:35 PM 64.4 °F 59.0 °F 83% 30.01 in 10.0 mi SSW 8.1 mph - N/A   Overcast
3:55 PM 64.4 °F 60.8 °F 88% 30.01 in 10.0 mi SSW 6.9 mph - N/A   Overcast
4:15 PM 64.4 °F 59.0 °F 83% 30.01 in 10.0 mi South 5.8 mph - N/A   Overcast
4:35 PM 64.4 °F 59.0 °F 83% 30.02 in 10.0 mi SSW 6.9 mph - N/A   Overcast
4:55 PM 64.4 °F 59.0 °F 83% 30.02 in 10.0 mi SSW 4.6 mph - N/A   Overcast
5:15 PM 64.4 °F 59.0 °F 83% 30.02 in 10.0 mi SW 9.2 mph - N/A   Overcast
5:35 PM 62.6 °F 62.6 °F 100% 30.02 in 10.0 mi SW 4.6 mph - N/A   Overcast
5:55 PM 62.6 °F 62.6 °F 100% 30.02 in 10.0 mi SSW 3.5 mph - N/A   Mostly Cloudy
6:15 PM 62.6 °F 62.6 °F 100% 30.01 in 10.0 mi Calm Calm - N/A   Mostly Cloudy
6:35 PM 62.6 °F 62.6 °F 100% 30.01 in 10.0 mi Calm Calm - N/A   Mostly Cloudy
6:55 PM 60.8 °F 60.8 °F 100% 30.02 in 10.0 mi Calm Calm - N/A   Overcast
7:15 PM 62.6 °F 62.6 °F 100% 30.02 in 10.0 mi Calm Calm - N/A   Overcast
7:35 PM 60.8 °F 60.8 °F 100% 30.02 in 10.0 mi Calm Calm - N/A   Overcast
7:55 PM 60.8 °F 60.8 °F 100% 30.03 in 10.0 mi Calm Calm - N/A   Mostly Cloudy
8:15 PM 60.8 °F 60.8 °F 100% 30.03 in 10.0 mi Calm Calm - N/A   Mostly Cloudy
8:35 PM 60.8 °F 60.8 °F 100% 30.03 in 7.0 mi ESE 3.5 mph - N/A   Overcast
8:55 PM 60.8 °F - N/A% 30.03 in 9.0 mi Calm Calm - N/A   Overcast
9:15 PM 60.8 °F - N/A% 30.03 in 9.0 mi Calm Calm - N/A   Overcast
9:35 PM 60.8 °F - N/A% 30.04 in 9.0 mi Calm Calm - N/A   Overcast
9:55 PM 60.8 °F - N/A% 30.04 in 10.0 mi Calm Calm - N/A   Mostly Cloudy
10:15 PM 60.8 °F - N/A% 30.04 in 10.0 mi Calm Calm - N/A   Mostly Cloudy
10:35 PM 60.8 °F - N/A% 30.04 in 8.0 mi Calm Calm - N/A   Mostly Cloudy
10:55 PM 60.8 °F - N/A% 30.04 in 9.0 mi Calm Calm - N/A   Mostly Cloudy
11:15 PM 59.0 °F - N/A% 30.04 in 4.0 mi Calm Calm - N/A   Haze
11:35 PM 59.0 °F - N/A% 30.04 in 8.0 mi SSE 5.8 mph - N/A   Overcast
11:55 PM 59.0 °F - N/A% 30.03 in 10.0 mi ESE 4.6 mph - N/A   Mostly Cloudy